Notices

What's New in latest Release from April 7th, 2021:

- Updated Glossary, including Speed of Maximum Gust, and Total Hourly Precipitation

- Updated national and regional climate services offices contacts and prices information

- Addition of station inventory lists for 1981-2010, 1971-2000, and 1961-1990 Normals.

If you haven't already, please take our survey and provide feedback about our website: https://eccc.sondage-survey.ca/f/LanguageSelection.aspx?s=442ca660-fcf1-47c0-95a9-59707d6fd709

Hourly Data Report for March 27, 2012

HALIFAX STANFIELD INT'L A
NOVA SCOTIA

44°52'48.060" N
63°30'00.050" W
145.40 m
8202250
71395
YHZ

Download Data

Hourly Data (March 2012)
Hourly Data Report for March 27, 2012
TIME
LST
Temp Definition
°C
Dew Point Definition
°C
Rel Hum Definition
%
Precip. Amount Definition
mm

Wind Dir Definition
10's deg

Wind Spd Definition
km/h
Visibility Definition
km
Stn Press Definition
kPa
Hmdx Definition


Wind Chill Definition


Weather Definition


00:00 -3.3 -8.0 70   32 32 24.1 98.13   -11 Cloudy
01:00 -3.5 -6.5 80   32 33 16.1 98.14   -11 Snow Showers
02:00 -3.7 -5.8 85   32 28 16.1 98.12   -11 Snow Showers
03:00 -3.6 -6.9 78   33 37 24.1 98.14   -12 Snow Showers
04:00 -4.3 -8.9 70   32 43 24.1 98.19   -13 Cloudy
05:00 -4.9 -8.6 75   32 33 24.1 98.21   -13 Cloudy
06:00 -5.6 -7.8 84   31 37 1.6 98.25   -15 Snow
07:00 -5.7 -7.6 86   32 44 1.6 98.31   -15 Snow
08:00 -5.0 -8.0 79   33 43 4.8 98.42   -14 Snow
09:00 -4.5 -8.1 76   34 57 9.7 98.50   -15 Snow
10:00 -4.4 -8.1 75   34 56 2.4 98.59   -15 Snow
11:00 -4.6 -8.5 74   33 50 3.2 98.62   -14 Snow
12:00 -4.1 -8.6 71   34 56 4.8 98.69   -14 Snow
13:00 -5.0 -9.4 71   33 41 3.2 98.76   -14 Snow
14:00 -4.7 -9.5 69   33 46 16.1 98.83   -14 Snow Showers
15:00 -4.6 -9.0 71   34 52 6.4 98.90   -15 Snow Showers
16:00 -4.2 -9.7 65   34 39 24.1 99.00   -13 Snow Showers
17:00 -4.0 -10.2 62   34 50 24.1 99.09   -14 Snow Showers
18:00 -4.4 -10.1 64   34 37 24.1 99.18   -13 Mostly Cloudy
19:00 -4.5 -10.1 65   34 39 24.1 99.23   -13 Mostly Cloudy
20:00 -5.2 -8.0 81   34 28 19.3 99.33   -13 Snow Showers
21:00 -4.8 -9.1 72   33 32 19.3 99.36   -13 Snow Showers
22:00 -4.9 -8.6 75   32 33 19.3 99.37   -13 Snow Showers
23:00 -5.0 -8.9 74   33 43 19.3 99.38   -14 Snow Showers

Notes on Data Quality.

Legend

  • E = Estimated
  • M = Missing
  • NA = Not Available*
  • [empty] = Indicates an unobserved value
Date modified: